[[{"header":{"parameterUnit":"m.s-1","parameterCategory":1,"la1":30.2991,"la2":30.254,"lo1":-89.0895,"lo2":-89.0444,"dx":0.0017,"dy":0.0017,"nx":28,"ny":28,"refTime":"2022-12-15T09:00:00:Z","depth":0,"parameterNumber":2,"parameterNumberName":"U-component_of_WINDS"},"data":[0,0,0,0,0,0,0,0,0,0,0,0,0,0,0,0,0,0,0,0,0,0,0,0,0,0,0,0,0,0,0,0,0,0,0,0,0,0,0,0,0,0,0,0,0,0,0,0,0,0,0,0,0,0,0,0,0,0,-0.1534,-0.1534,0,-0.1536,-0.1536,-0.1536,-0.1488,-0.1487,-0.1486,-0.1485,-0.1488,-0.1489,-0.149,0,0,0,0,0,0,0,0,0,0,0,0,0,-0.149,-0.1491,-0.1534,-0.1534,-0.1534,-0.1536,-0.1536,-0.1536,-0.1489,-0.1487,-0.1485,-0.1484,-0.1487,-0.1489,-0.149,0,0,0,0,0,0,0,0,0,0,0,0,0,-0.1502,-0.1492,-0.1534,-0.151,-0.1508,-0.1536,-0.1536,-0.1536,-0.1489,-0.1487,-0.1485,-0.1483,-0.1487,-0.1489,-0.1491,-0.1541,0,0,-0.1497,-0.1497,0,0,0,0,0,0,0,0,-0.1502,-0.1504,-0.1514,-0.1512,-0.151,-0.151,-0.1521,-0.1537,-0.1489,-0.1496,-0.1485,-0.1482,-0.1497,-0.1498,-0.1502,-0.1541,-0.1541,-0.1497,-0.1498,-0.1499,-0.1499,0,0,0,0,0,0,0,-0.1501,-0.1504,-0.1534,-0.1514,-0.1512,-0.15,-0.15,-0.1524,-0.1507,-0.1496,-0.1492,-0.1493,-0.1495,-0.1501,-0.1502,-0.1541,-0.1497,-0.1498,-0.1499,-0.15,-0.1621,-0.1623,0,0,0,0,0,0,-0.1503,-0.1503,-0.1534,-0.1534,-0.1501,-0.1503,-0.1502,-0.1512,-0.1507,-0.1504,-0.1495,-0.1491,-0.1498,-0.15,-0.1502,-0.1561,-0.1499,-0.15,-0.1502,-0.1619,-0.1621,-0.1623,0,0,0,0,0,0,-0.1502,-0.1506,-0.1534,-0.1518,-0.1521,-0.1505,-0.1516,-0.1513,-0.1518,-0.1506,-0.1503,-0.1503,-0.1497,-0.1499,-0.1531,-0.156,-0.1501,-0.1503,-0.1616,-0.1619,-0.1622,-0.1678,0,0,0,0,0,0,-0.1501,-0.1506,-0.1525,-0.1519,-0.1522,-0.1564,-0.1518,-0.1514,-0.1521,-0.1516,-0.1513,-0.1511,-0.1496,-0.1529,-0.1533,-0.1562,-0.1505,-0.1614,-0.1618,-0.1621,-0.1674,-0.1683,-0.169,0,0,0,0,0,-0.15,-0.1541,-0.1526,-0.153,-0.1545,-0.1565,-0.1567,-0.1548,-0.1524,-0.1543,-0.1535,-0.1511,-0.1556,-0.1532,-0.1537,-0.1567,-0.1612,-0.1616,-0.1621,-0.167,-0.1681,-0.169,0,0,0,0,0,0,-0.1552,-0.154,-0.1523,-0.1563,-0.1566,-0.1557,-0.158,-0.156,-0.157,-0.1565,-0.1541,-0.1541,-0.1577,-0.1575,-0.1549,-0.1615,-0.1579,-0.1585,-0.1615,-0.1626,-0.1634,-0.1634,-0.1506,0,0,0,0,0,-0.1568,-0.1585,-0.1574,-0.161,-0.1612,-0.1596,-0.1604,-0.159,-0.1591,-0.1592,-0.1587,-0.159,-0.1604,-0.1614,-0.1627,-0.1672,-0.1672,-0.1695,-0.1703,-0.171,-0.1716,-0.174,-0.1751,-0.1638,-0.1638,-0.1638,0,0,-0.1601,-0.1597,-0.1609,-0.162,-0.162,-0.164,-0.1597,-0.1619,-0.1633,-0.1595,-0.1626,-0.1622,-0.1623,-0.1662,-0.1679,-0.1661,-0.1747,-0.1716,-0.1722,-0.1724,-0.1746,-0.1757,-0.1767,-0.1642,-0.1641,-0.164,0,0,-0.1672,-0.167,-0.17,-0.1701,-0.1701,-0.169,-0.1698,-0.1692,-0.1688,-0.1718,-0.169,-0.1706,-0.1732,-0.1734,-0.1739,-0.181,-0.1789,-0.1815,-0.1859,-0.1883,-0.1892,-0.19,-0.1926,-0.1936,-0.182,-0.182,-0.182,0,-0.1714,-0.1741,-0.1719,-0.1742,-0.1748,-0.1714,-0.1745,-0.1747,-0.1752,-0.1757,-0.1737,-0.1768,-0.1767,-0.1806,-0.1823,-0.1828,-0.1836,-0.1816,-0.1893,-0.19,-0.1907,-0.1932,-0.1942,-0.1823,-0.1823,-0.1823,-0.1822,0,-0.1793,-0.1812,-0.1836,-0.1842,-0.185,-0.1877,-0.186,-0.1871,-0.1855,-0.1846,-0.1877,-0.1874,-0.1886,-0.1894,-0.1879,-0.1931,-0.192,-0.1897,-0.1861,-0.1921,-0.1945,-0.1954,-0.1828,-0.1827,-0.1826,-0.1825,0,0,-0.1898,-0.1889,-0.1899,-0.1901,-0.1898,-0.1913,-0.1939,-0.195,-0.196,-0.1964,-0.1986,-0.2008,-0.1986,-0.1991,-0.1976,-0.1997,-0.2055,-0.1971,-0.197,-0.1988,-0.2113,-0.2132,-0.2144,-0.204,-0.2041,-0.2043,-0.2114,0,-0.1967,-0.2011,-0.1991,-0.2037,-0.2055,-0.2022,-0.2044,-0.2046,-0.2038,-0.2052,-0.2043,-0.206,-0.2029,-0.2032,-0.2051,-0.2044,-0.208,-0.2038,-0.2061,-0.2062,-0.2063,-0.2155,-0.2176,-0.2243,-0.2122,-0.2124,-0.2125,0,-0.2055,-0.2062,-0.211,-0.2104,-0.2111,-0.2131,-0.214,-0.2154,-0.2154,-0.2147,-0.2153,-0.2133,-0.2158,-0.2121,-0.2156,-0.2128,-0.2136,-0.2133,-0.2135,-0.2138,-0.2098,-0.2162,-0.2263,-0.2274,-0.2139,-0.2138,-0.2137,0,-0.2128,-0.215,-0.2181,-0.2184,-0.2177,-0.2193,-0.2191,-0.2189,-0.2197,-0.2205,-0.221,-0.222,-0.2226,-0.2235,-0.2218,-0.2193,-0.2256,-0.2218,-0.2251,-0.2252,-0.2267,-0.2267,-0.2373,-0.227,-0.227,-0.227,-0.227,0,-0.2209,-0.2239,-0.2214,-0.2233,-0.2267,-0.2244,-0.2277,-0.2272,-0.2271,-0.2289,-0.2261,-0.2279,-0.2255,-0.227,-0.2257,-0.2289,-0.2291,-0.2287,-0.2283,-0.229,-0.2291,-0.2296,-0.2292,-0.2272,-0.2272,-0.2271,-0.2271,0,-0.2297,-0.2281,-0.2313,-0.2304,-0.2303,-0.2328,-0.2321,-0.2338,-0.2328,-0.2352,-0.2356,-0.234,-0.2357,-0.2341,-0.2356,-0.2347,-0.239,-0.2379,-0.239,-0.2387,-0.2422,-0.242,-0.2537,-0.2551,-0.2438,-0.2439,-0.244,0,-0.235,-0.2373,-0.2367,-0.2377,-0.2376,-0.2393,-0.24,-0.2378,-0.2388,-0.239,-0.2408,-0.2422,-0.2432,-0.246,-0.2451,-0.2463,-0.2453,-0.2493,-0.2454,-0.2461,-0.2455,-0.2454,-0.2457,-0.2501,-0.2503,-0.2504,-0.2505,0,-0.2447,-0.2438,-0.245,-0.246,-0.247,-0.2476,-0.2481,-0.249,-0.2467,-0.2479,-0.2496,-0.2504,-0.252,-0.2535,-0.2543,-0.2542,-0.252,-0.2516,-0.2525,-0.2533,-0.2539,-0.2538,-0.2413,-0.2514,-0.2513,-0.2513,-0.2512,-0.2512,-0.252,-0.2539,-0.2538,-0.2552,-0.2553,-0.2558,-0.2574,-0.2566,-0.2579,-0.259,-0.2576,-0.2597,-0.2596,-0.2606,-0.2607,-0.2623,-0.2606,-0.2619,-0.2622,-0.2626,-0.2632,-0.2535,-0.2624,-0.2624,-0.2624,-0.2624,-0.2623,0,-0.2617,-0.2614,-0.2628,-0.2634,-0.2646,-0.2623,-0.2627,-0.2638,-0.2656,-0.2658,-0.2668,-0.2687,-0.2701,-0.2693,-0.2705,-0.2719,-0.271,-0.2723,-0.2723,-0.2723,-0.2645,-0.2637,-0.2731,-0.2731,-0.2731,-0.2731,-0.2731,-0.2731,-0.2669,-0.27,-0.269,-0.2721,-0.2718,-0.2738,-0.2742,-0.2746,-0.2747,-0.277,-0.2781,-0.2775,-0.2773,-0.2784,-0.2796,-0.2793,-0.28,-0.2817,-0.2811,-0.2739,-0.2728,-0.2718,-0.2711,-0.2818,-0.2819,-0.2888,-0.2888,-0.2889]},{"header":{"parameterUnit":"m.s-1","parameterCategory":1,"la1":30.2991,"la2":30.254,"lo1":-89.0895,"lo2":-89.0444,"dx":0.0017,"dy":0.0017,"nx":28,"ny":28,"refTime":"2022-12-15T09:00:00:Z","depth":0,"parameterNumber":3,"parameterNumberName":"V-component_of_WINDS"},"data":[0,0,0,0,0,0,0,0,0,0,0,0,0,0,0,0,0,0,0,0,0,0,0,0,0,0,0,0,0,0,0,0,0,0,0,0,0,0,0,0,0,0,0,0,0,0,0,0,0,0,0,0,0,0,0,0,0,0,-2.0079,-2.008,0,-2.0121,-2.0121,-2.0122,-2.0115,-2.0114,-2.0113,-2.0112,-2.0152,-2.0154,-2.0155,0,0,0,0,0,0,0,0,0,0,0,0,0,-1.9991,-1.9993,-2.0079,-2.008,-2.008,-2.0121,-2.0121,-2.0122,-2.0115,-2.0114,-2.0113,-2.0112,-2.0151,-2.0153,-2.0156,0,0,0,0,0,0,0,0,0,0,0,0,0,-2.0031,-1.9993,-2.0079,-2.0082,-2.0082,-2.0121,-2.0121,-2.0122,-2.0115,-2.0114,-2.0113,-2.0112,-2.0151,-2.0153,-2.0156,-2.0193,0,0,-2.0164,-2.0165,0,0,0,0,0,0,0,0,-2.0028,-2.0034,-2.0081,-2.0082,-2.0082,-2.0112,-2.0105,-2.0146,-2.0115,-2.0102,-2.0112,-2.0111,-2.0139,-2.0143,-2.0153,-2.0195,-2.0197,-2.0164,-2.0166,-2.0167,-2.0167,0,0,0,0,0,0,0,-2.0026,-2.0032,-2.0096,-2.0081,-2.0082,-2.008,-2.0084,-2.0112,-2.0126,-2.0103,-2.0103,-2.0108,-2.0139,-2.015,-2.0154,-2.0198,-2.0164,-2.0166,-2.0168,-2.0169,-2.0274,-2.0275,0,0,0,0,0,0,-2.0022,-2.003,-2.0094,-2.0097,-2.0052,-2.0082,-2.0087,-2.0103,-2.0126,-2.0128,-2.0109,-2.0108,-2.0146,-2.0151,-2.0155,-2.0202,-2.0167,-2.0169,-2.0171,-2.0273,-2.0274,-2.0276,0,0,0,0,0,0,-2.0021,-2.0028,-2.0093,-2.0063,-2.0071,-2.0085,-2.0103,-2.0105,-2.0116,-2.013,-2.0132,-2.0118,-2.0146,-2.0151,-2.0184,-2.0203,-2.017,-2.0173,-2.0271,-2.0273,-2.0275,-2.0295,0,0,0,0,0,0,-2.0018,-2.0028,-2.0043,-2.0064,-2.0073,-2.0122,-2.0104,-2.0106,-2.012,-2.0119,-2.0139,-2.0141,-2.0145,-2.0181,-2.0187,-2.0206,-2.0175,-2.027,-2.0272,-2.0274,-2.0292,-2.0297,-2.0301,0,0,0,0,0,-2.0015,-2.0046,-2.0044,-2.0051,-2.0092,-2.0123,-2.0128,-2.0133,-2.0122,-2.0137,-2.0146,-2.0141,-2.02,-2.0184,-2.0191,-2.0211,-2.0269,-2.0271,-2.0274,-2.0291,-2.0296,-2.0301,0,0,0,0,0,0,-2.0025,-2.0048,-2.0046,-2.0085,-2.0102,-2.0122,-2.0141,-2.0139,-2.0159,-2.0157,-2.0161,-2.0165,-2.0199,-2.0208,-2.019,-2.0249,-2.0232,-2.0237,-2.0242,-2.0248,-2.0252,-2.025,-2.0177,0,0,0,0,0,-2.0032,-2.0056,-2.0075,-2.0107,-2.0116,-2.0127,-2.0141,-2.0143,-2.0161,-2.0168,-2.018,-2.0197,-2.0219,-2.0234,-2.0255,-2.0293,-2.0298,-2.031,-2.0315,-2.0318,-2.0322,-2.0344,-2.035,-2.0285,-2.0285,-2.0285,0,0,-2.0046,-2.0062,-2.0077,-2.011,-2.0123,-2.0148,-2.0133,-2.016,-2.0178,-2.0172,-2.0204,-2.0214,-2.0232,-2.0269,-2.0285,-2.0277,-2.0341,-2.0322,-2.0324,-2.0326,-2.0348,-2.0354,-2.0359,-2.0287,-2.0286,-2.0286,0,0,-2.0085,-2.0099,-2.0128,-2.0143,-2.0164,-2.0172,-2.0179,-2.0199,-2.0205,-2.0238,-2.0235,-2.0256,-2.0294,-2.0308,-2.032,-2.0365,-2.0361,-2.0371,-2.0394,-2.0415,-2.0421,-2.0425,-2.0442,-2.0448,-2.0375,-2.0375,-2.0375,0,-2.01,-2.0138,-2.0143,-2.0171,-2.0185,-2.0182,-2.0211,-2.0225,-2.0252,-2.0262,-2.0252,-2.0301,-2.0313,-2.0353,-2.0365,-2.0374,-2.0382,-2.037,-2.0419,-2.0424,-2.0429,-2.0445,-2.0451,-2.0376,-2.0376,-2.0376,-2.0376,0,-2.0156,-2.0182,-2.0203,-2.0231,-2.0248,-2.0276,-2.0285,-2.0301,-2.0301,-2.031,-2.0343,-2.0358,-2.0383,-2.0392,-2.0392,-2.0433,-2.0427,-2.0419,-2.0402,-2.0436,-2.0452,-2.0458,-2.0378,-2.0378,-2.0377,-2.0377,0,0,-2.0203,-2.0234,-2.0241,-2.0255,-2.0279,-2.0299,-2.0326,-2.0352,-2.0366,-2.0385,-2.0408,-2.0441,-2.0434,-2.0447,-2.0449,-2.0468,-2.0504,-2.0457,-2.0458,-2.0466,-2.055,-2.0558,-2.0565,-2.0501,-2.0502,-2.0503,-2.0549,0,-2.0245,-2.0296,-2.0302,-2.0347,-2.0372,-2.0369,-2.0393,-2.041,-2.0418,-2.044,-2.0448,-2.0472,-2.0459,-2.0468,-2.0486,-2.0496,-2.0521,-2.0492,-2.0523,-2.0524,-2.052,-2.0573,-2.0581,-2.0624,-2.0555,-2.0556,-2.0557,0,-2.0301,-2.0324,-2.0372,-2.0393,-2.0404,-2.0426,-2.045,-2.0471,-2.049,-2.0494,-2.051,-2.051,-2.0538,-2.052,-2.0559,-2.0539,-2.0552,-2.0558,-2.056,-2.0564,-2.0544,-2.058,-2.0638,-2.0645,-2.0566,-2.0566,-2.0565,0,-2.0333,-2.0374,-2.0409,-2.042,-2.0445,-2.0461,-2.0472,-2.049,-2.0506,-2.0526,-2.0536,-2.0559,-2.0572,-2.059,-2.0595,-2.0581,-2.0635,-2.0616,-2.064,-2.064,-2.0652,-2.0652,-2.0714,-2.0658,-2.0658,-2.0658,-2.0658,0,-2.038,-2.041,-2.0424,-2.0445,-2.0478,-2.0484,-2.0517,-2.0527,-2.0543,-2.0566,-2.0563,-2.0585,-2.059,-2.0612,-2.0617,-2.0649,-2.0654,-2.0659,-2.066,-2.066,-2.066,-2.067,-2.0667,-2.0659,-2.0659,-2.0659,-2.0658,0,-2.0421,-2.0432,-2.0469,-2.0491,-2.0497,-2.0521,-2.0539,-2.0559,-2.0567,-2.0596,-2.0603,-2.0615,-2.0641,-2.0648,-2.0679,-2.0682,-2.0721,-2.0718,-2.0715,-2.0715,-2.0739,-2.0737,-2.0811,-2.0821,-2.0757,-2.0757,-2.0758,0,-2.0452,-2.0475,-2.05,-2.0516,-2.0528,-2.0554,-2.057,-2.0576,-2.0592,-2.0616,-2.0634,-2.066,-2.0681,-2.0723,-2.0734,-2.0757,-2.0756,-2.078,-2.076,-2.076,-2.0758,-2.0758,-2.076,-2.0785,-2.0785,-2.0786,-2.0786,0,-2.0506,-2.051,-2.0534,-2.056,-2.058,-2.06,-2.062,-2.0632,-2.0641,-2.066,-2.0687,-2.0704,-2.0736,-2.0762,-2.0786,-2.0796,-2.0793,-2.0793,-2.08,-2.0801,-2.0799,-2.0802,-2.0727,-2.0791,-2.0791,-2.0791,-2.079,-2.079,-2.0543,-2.0565,-2.0586,-2.0613,-2.0628,-2.0647,-2.0668,-2.0679,-2.0702,-2.073,-2.0732,-2.0762,-2.078,-2.0812,-2.0824,-2.0847,-2.084,-2.0849,-2.0852,-2.0855,-2.0858,-2.0794,-2.0851,-2.0851,-2.0851,-2.0851,-2.0851,0,-2.0598,-2.0612,-2.0637,-2.0665,-2.0687,-2.0682,-2.0704,-2.0722,-2.0749,-2.0767,-2.0788,-2.082,-2.0845,-2.0859,-2.0884,-2.09,-2.0899,-2.0906,-2.0906,-2.0908,-2.0862,-2.0854,-2.0907,-2.0907,-2.0907,-2.0907,-2.0907,-2.0907,-2.063,-2.0666,-2.0672,-2.0716,-2.0729,-2.076,-2.0773,-2.079,-2.0804,-2.0841,-2.0862,-2.0871,-2.0887,-2.0914,-2.0937,-2.094,-2.0949,-2.0958,-2.096,-2.0917,-2.0912,-2.0906,-2.0899,-2.096,-2.096,-2.1005,-2.1006,-2.1006]}]]